This is the latest recevied weather packets stored in our database for station/object W6DSP. If no packets are shown the sender has not sent any weather packets the latest 10 day(s).
| Time | Temp. | Humidity | Pressure | Rain* | Wind** | Luminosity | Snow |
|---|---|---|---|---|---|---|---|
| 1777709716 | 0.56° C | 80% | 1019.4 hPa | 0 mm | - | - | - |
| 1777708982 | 0.56° C | 80% | 1019.3 hPa | 0 mm | - | - | - |
| 1777708261 | 1.11° C | 79% | 1019.1 hPa | 0 mm | - | - | - |
| 1777707563 | 0.56° C | 78% | 1019.1 hPa | 0 mm | - | - | - |
| 1777706832 | 1.67° C | 76% | 1019.1 hPa | 0 mm | - | - | - |
| 1777706142 | 1.67° C | 75% | 1019.1 hPa | 0 mm | - | - | - |
| 1777705432 | 2.22° C | 70% | 1019.2 hPa | 0 mm | - | - | - |
| 1777704736 | 2.22° C | 69% | 1019.4 hPa | 0 mm | - | - | - |
| 1777704015 | 2.78° C | 69% | 1019.4 hPa | 0 mm | - | - | - |
| 1777703311 | 2.78° C | 68% | 1019.5 hPa | 0 mm | - | - | - |
| 1777702610 | 3.33° C | 67% | 1019.4 hPa | 0 mm | - | - | - |
| 1777701895 | 3.33° C | 66% | 1019.5 hPa | 0 mm | - | - | - |
| 1777701161 | 3.89° C | 68% | 1019.6 hPa | 0 mm | - | - | - |
| 1777700466 | 3.89° C | 69% | 1019.5 hPa | 0 mm | - | - | - |
| 1777699764 | 4.44° C | 68% | 1019.5 hPa | 0 mm | - | - | - |
| 1777699065 | 4.44° C | 73% | 1019.4 hPa | 0 mm | - | - | - |
| 1777698337 | 4.44° C | 79% | 1019.5 hPa | 0 mm | - | - | - |
| 1777697631 | 4.44° C | 80% | 1019.4 hPa | 0 mm | - | - | - |
| 1777696895 | 3.89° C | 81% | 1019.5 hPa | 0 mm | - | - | - |
| 1777696137 | 3.89° C | 81% | 1019.6 hPa | 0 mm | - | - | - |
| 1777695376 | 3.33° C | 82% | 1019.7 hPa | 0 mm | - | - | - |
| 1777694642 | 3.33° C | 82% | 1019.7 hPa | 0 mm | - | - | - |
| 1777693921 | 3.33° C | 80% | 1019.7 hPa | 0 mm | - | - | - |
| 1777693199 | 3.89° C | 78% | 1019.6 hPa | 0 mm | - | - | - |
| 1777692496 | 3.89° C | 80% | 1019.5 hPa | 0 mm | - | - | - |
* Rain latest hour (hover to see other rain measurements)
** Current wind speed in m/s (hover to see current wind gust speed)